OpenBCM V1.08-5-g2f4a (Linux)

Packet Radio Mailbox

IZ3LSV

[San Dona' di P. JN]

 Login: GUEST





  
CX2SA  > KEP      29.01.20 00:51l 86 Lines 3611 Bytes #999 (0) @ ARL
BID : ARLK008
Read: GUEST
Subj: ARLK008 Keplerian data
Path: IZ3LSV<IQ5KG<IK1NHL<CX2SA
Sent: 200128/2257Z @:CX2SA.SAL.URY.SOAM #:23882 [Salto] FBB7.00e $:ARLK008
From: CX2SA@CX2SA.SAL.URY.SOAM
To  : KEP@ARL


ZCZC SK08
QST de W1AW
Keplerian Bulletin 8  ARLK008
From ARRL Headquarters
Newington, CT  January 28, 2020
To all radio amateurs

SB KEP ARL ARLK008
ARLK008 Keplerian data

Special thanks to AMSAT-NA (AMSAT.ORG) for the following Keplerian
data.

Decode 2-line elsets with the following key:
1 AAAAAU 00  0  0 BBBBB.BBBBBBBB  .CCCCCCCC  00000-0  00000-0 0  DDDZ
2 AAAAA EEE.EEEE FFF.FFFF GGGGGGG HHH.HHHH III.IIII JJ.JJJJJJJJKKKKKZ
KEY: A-CATALOGNUM B-EPOCHTIME C-DECAY D-ELSETNUM E-INCLINATION F-RAAN
G-ECCENTRICITY H-ARGPERIGEE I-MNANOM J-MNMOTION K-ORBITNUM Z-CHECKSUM

0 AO-07
1 7530U 74089B   20028.56170751 -.00000043 +00000-0 +16594-4 0  9994
2 7530 101.7804 359.2035 0011943 276.1376 200.1231 12.53641739068335
0 FO-29
1 24278U 96046B   20028.60096588 +.00000003 +00000-0 +38694-4 0  9999
2 24278 098.5660 157.0030 0350710 019.8501 341.5903 13.53095092157831
0 ISS
1 25544U 98067A   20028.73019035  .00001134  00000-0  28677-4 0  9993
2 25544  51.6454 323.4282 0005581 200.8972 238.7330 15.49113435210249
0 SO-50
1 27607U 02058C   20028.53857654 -.00000031 +00000-0 +16380-4 0  9999
2 27607 064.5553 085.2061 0065119 211.7830 147.9336 14.75605397919939
0 CO-55
1 27844U 03031E   20028.58788094 +.00000029 +00000-0 +32559-4 0  9992
2 27844 098.6838 038.4367 0010905 102.2241 258.0159 14.22217966860078
0 RS-22
1 27939U 03042A   20028.52406329  .00000038  00000-0  15408-4 0  9995
2 27939  98.0686 165.4105 0014259  80.9659 279.3158 14.66832123873356
0 RS-30
1 32953U 08025A   20028.55056676  .00000037  00000-0  19437-3 0  9996
2 32953  82.5041   5.5381 0019607   4.8027 355.3239 12.43094059530128
0 KKS-1
1 33499U 09002H   20028.53436072 +.00000058 +00000-0 +16570-4 0  9997
2 33499 098.3311 239.1830 0008469 207.2759 152.8005 14.75498984591803
0 AO-71
1 37854U 11061E   20028.55599450 +.00000546 +00000-0 +35522-4 0  9996
2 37854 101.7134 047.0863 0159360 120.7260 240.9760 15.06941748450255
0 AO-73
1 39444U 13066AE  20028.59680853 +.00000230 +00000-0 +34464-4 0  9996
2 39444 097.5578 036.6295 0058345 014.1616 346.1217 14.82051897332504
0 UKUBE 1
1 40074U 14037F   20028.46770644  .00000177  00000-0  28336-4 0  9991
2 40074  98.4504 208.4255 0003620 198.4672 161.6415 14.84180975300847
0 XW-2A
1 40903U 15049E   20028.44536936  .00001444  00000-0  35125-4 0  9990
2 40903  97.3094  77.1743 0014903  59.1746  65.8462 15.42562189244732
0 XW-2F
1 40910U 15049M   20028.54976417  .00000793  00000-0  42602-4 0  9995
2 40910  97.4656  34.0627 0016039 127.0053 352.3044 15.17670325240961
0 XW-2B
1 40911U 15049N   20028.46094222  .00000488  00000-0  28774-4 0  9997
2 40911  97.4729  32.3044 0015129 136.5333  19.2083 15.16046870240808
0 IO-86
1 40931U 15052B   20026.76763973  .00000553  00000-0 -11999-4 0  9995
2 40931   5.9962 272.8828 0012279  53.5953 306.5283 14.76624567234136
0 CAS-4B
1 42759U 17034B   20028.58091110 -.00000045  00000-0  10784-4 0  9993
2 42759  43.0190  80.9961 0011952 229.2418 285.9337 15.09727448144671
0 CAS-4A
1 42761U 17034D   20028.52992845  .00000080  00000-0  18324-4 0  9991
2 42761  43.0199  80.6703 0012588 229.6534 271.4024 15.09806465144662
0 AO-91
1 43017U 17073E   20028.24891160  .00000250  00000-0  24749-4 0  9993
2 43017  97.7272 305.9123 0258184 150.0869 211.5388 14.78778732118294
0 AO-92
1 43137U 18004AC  20028.44773214 +.00000718 +00000-0 +32730-4 0  9990
2 43137 097.4628 100.4710 0009138 181.2527 178.8688 15.23845189113575

Keplerian bulletins are transmitted twice weekly from W1AW.  The
next scheduled transmission of these data will be Friday, January 31,
2020, at 2230z on Baudot and BPSK31.
NNNN


Read previous mail | Read next mail


 15.12.2025 10:57:26lGo back Go up